Regional Weather Roundup
Issued by NWS Upton, NY

Home | Current Version | Previous Version | Text Only | Print | Product List | Glossary On
Versions: 1 2 3 4 5 6 7 8 9 10 11 12 13 14 15 16 17 18 19 20 21 22 23 24 25 26 27 28 29 30 31 32 33 34 35 36 37 38 39 40 41 42 43 44 45 46 47 48 49 50
842
ASUS41 KOKX 211908
RWROKX

REGIONAL WEATHER ROUNDUP
NATIONAL WEATHER SERVICE NEW YORK NY
200 PM EST TUE FEB 21 2017

NOTE: "FAIR" INDICATES FEW OR NO CLOUDS BELOW 12,000 FEET WITH NO
SIGNIFICANT WEATHER AND/OR OBSTRUCTIONS TO VISIBILITY.

NYZ071-072-176-178-NJZ106-104-212000-
NEW YORK CITY METRO AREA

CITY           SKY/WX    TMP DP  RH WIND       PRES   REMARKS
Central Park   MOSUNNY   46  26  45 VRB3      30.28F
Wall St Helipt NOT AVBL
LaGuardia APRT CLOUDY    47  28  47 S10       30.27F
Kennedy INTL   CLOUDY    44  31  60 S9        30.29F
Breezy Point     N/A     39 N/A N/A SE10        N/A  WCI  32
Newark/Liberty CLOUDY    45  31  58 SE7       30.27F
Teterboro      CLOUDY    47  30  51 S8G18     30.26F
$$

NYZ177-179-078>081-212000-
LONG ISLAND NEW YORK

CITY           SKY/WX    TMP DP  RH WIND       PRES   REMARKS
Jones Beach      N/A     39 N/A N/A SE8         N/A  WCI  34
Matinecock PT  NOT AVBL
Farmingdale    CLOUDY    43  28  55 S10       30.28F
MacArthur/ISP  CLOUDY    43  27  53 S8        30.27F
Shirley        MOSUNNY   43  26  51 S10       30.29F
Westhampton    CLOUDY    43  27  53 S9        30.31F
Southampton    NOT AVBL
Bridgehampton  NOT AVBL
East Hampton     N/A     42  25  51 S9        30.29S
Montauk          N/A     41  30  65 VRB5      30.31F
$$

NYZ052-065-067-212000-
HUDSON VALLEY

CITY           SKY/WX    TMP DP  RH WIND       PRES   REMARKS
White Plains   CLOUDY    45  24  43 S14       30.24F
Newburgh       PTSUNNY   45  25  45 CALM      30.24F
Montgomery     CLOUDY    46  25  43 SW10      30.21F
Poughkeepsie   MOSUNNY   46  22  38 S8        30.23F
Albany         CLOUDY    42  16  34 S22       30.19F
$$

NJZ001-105-106-008-010-013-015-019>022-104-212000-
NEW JERSEY

CITY           SKY/WX    TMP DP  RH WIND       PRES   REMARKS
Newark/Liberty CLOUDY    45  31  58 SE7       30.27F
Teterboro      CLOUDY    47  30  51 S8G18     30.26F
Caldwell       CLOUDY    47  27  45 VRB7      30.26F
Somerville     MOSUNNY   49  27  42 VRB7      30.23F
Linden         NOT AVBL
Sussex         MOSUNNY   46  26  45 S8        30.22F
Andover          N/A     45  24  43 VRB5      30.22F
Trenton        PTSUNNY   49  28  44 S8        30.24F
Millville      MOSUNNY   49  34  56 VRB6      30.27F
Atlantic City  PTSUNNY   47  30  51 SE10      30.28F
Wrightstown    NOT AVBL
Toms River     MOSUNNY   48  31  51 SE15      30.27F
Belmar         MOSUNNY   46  29  51 S10       30.28F
$$

PAZ047>061-062-071-212000-
EASTERN PENNSYLVANIA

CITY           SKY/WX    TMP DP  RH WIND       PRES   REMARKS
Philadelphia   CLOUDY    51  29  42 S12       30.25F
Allentown      CLOUDY    49  25  39 S9        30.22F
Scranton       CLOUDY    48  21  34 VRB7      30.16F
$$

CTZ002-004>006-009-010-012-RIZ004-006-007-MAZ004-011-015-212000-
SOUTHERN NEW ENGLAND
 IN CT

CITY           SKY/WX    TMP DP  RH WIND       PRES   REMARKS
Bradley INTL   CLOUDY    44  17  33 S8        30.25F
Hartford       CLOUDY    45  17  32 S5        30.26F
Danbury        CLOUDY    44  21  40 S10G20    30.25F
Wtrbury/Oxford PTSUNNY   43  16  33 MISG      30.26F
Bridgeport     CLOUDY    43  22  43 SW5       30.28F
Meriden        CLOUDY    43  15  32 S9        30.27F
New Haven      CLOUDY    42  21  43 S7        30.28F
Chester          N/A     43  14  31 SW8       30.26F
Groton         CLOUDY    41  28  60 S7        30.29F
Wilimantic     MOSUNNY   45  16  31 S9        30.27F

 IN RI

CITY           SKY/WX    TMP DP  RH WIND       PRES   REMARKS
Providence     CLOUDY    44  19  36 VRB6      30.27F
Block Island   CLOUDY    40  27  59 S7        30.30F
Westerly       MOSUNNY   42  22  44 S7        30.30F
 IN MA

CITY           SKY/WX    TMP DP  RH WIND       PRES   REMARKS
Boston         PTSUNNY   39  27  62 E14       30.28F WCI  31
Worcester      MOSUNNY   42  12  29 S8        30.22F
Westfield      CLOUDY    41  17  38 SE9       30.23F
Provincetown   SUNNY     40  26  57 NE8       30.30F WCI  34
Nantucket      SUNNY     44  24  45 N8        30.29F
$$

ANZ330-335-338-340-345-350-353-355-212000-
COASTAL MARINE OBSERVATIONS


STATION/POSITION TIME  SKY/WX   TEMP    WIND        PRES    VSBY  WAVE
                                AIR SEA DIR/SP/G                  HT/PER
                 (UTC)          (F)     (DEG/KT/KT) (MB)    (MI)  (FT/S)
NY HARB ENTRANCE 1850            40 42  120/  8/ 10 1025.4          2/ 5
20 S FIRE ISLAND 1850            42 43  150/  6/  6 1025.7          2/ 5
GREAT SOUTH BAY  NOT AVBL
23 SSW MONTAUK P 1750            40 46              1027.2          2/ 8
15 E BARNEGAT LI 1830               44                N/A           3/ 6
HUDSON CANYON    1850               50              1025.9          3/ 6
KINGS POINT      1848            42 40              1024.9
EXECUTION ROCKS  NOT AVBL
CENTRAL LI SOUND 1830            39      60/  2/  2   N/A           0
EASTERN LI SOUND NOT AVBL
ROBBINS REEF     1848            40     160/ 13/ 14 1025.2
$$


>>>>>>>>>>>>>>>>>>>>>>>>>>>> KEY <<<<<<<<<<<<<<<<<<<<<<<<<<<
>                                                          <
>     SKY/WX - Sky Condition/Present Weather               <
>     TMP    - Temperature in Fahrenheit                   <
>     DP     - Dew Point in Fahrenheit                     <
>     RH     - Relative Humidity in Percent                <
>     WIND   - Direction (from) and Speed in MPH           <
>     PRES   - Mean Sea Level Pressure (inches of Hg)      <
>     WCI    - Wind Chill Index                            <
>     VSB    - VISIBILITY IN MILES                         <
>     HX     - HEAT INDEX                                  <
>     TC     - TEMPERATURE IN CELSIUS                      <
>     VRB    - VARIABLE WIND DIRECTION                     <
>                                                          <
>>>>>>>>>>>>>>>>>>>>>>>>>>>> KEY <<<<<<<<<<<<<<<<<<<<<<<<<<<




USA.gov is the U.S. government's official web portal to all federal, state and local government web resources and services.